Location: Cardiff
(53.7833°N, 113.6000°W)
Time: 06:59:17
(UTC+00:00)

SO-50 - Pass Details

Date: 13 December 2023
Orbit: 608 x 660 km, 64.6° (Epoch: 02 March)

Event Time Altitude Azimuth Distance (km) Brightness Sun altitude
Exits shadow 12:44:47 21° 5° (N) 1,430 ? -24.8°
Drops below altitude 10° 12:47:47 10° 46° (NE) 2,023 ? -24.4°
Sets 12:50:31 0° 62° (ENE) 2,921 ? -24.0°
